Content
SEND FEEDBACK

Daily
Averages
Monthly
Summary
Russia

VORONEZ, RUSSIA


Home > Europe > Russia
Elevation: 489 feet     Latitude: 51 42N     Longitude: 039 13E

WEATHER
 
SELECT A DAY
Number of Records: 140,098;   Date Range: 3/24/97 - 8/30/14
 
SHARE

PRINT THIS DATA

[ ← Previous Day ]
WEATHER ALMANAC - JANUARY 31, 2013
[ Next Day → ]
[ °C ]   °F
Weather ElementAverageHighLow
Temperature22.3 °F23 °F (1:30 am)21.2 °F (12:30 am)
Dewpoint20.1 °F23 °F (11:30 pm)17.6 °F (5:00 am)
Humidity91.6 %100 % (1:00 am)86 % (1:30 am)
Barometer29.84 in29.98 in (12:30 am)29.68 in (11:00 pm)
Wind Speed9.5 mph13.4 mph (4:30 am)
Weather ElementAverage
Visibility5.4 mi
Wind DirectionSE (140.2 °)

Weather ElementTotal
Precipitation---
Heating Degree Days42.9 (Base 65)
Averaged from 46 records on January 31, 2013
WEATHER CONDITIONS BREAKOUT
WIND DIRECTION BREAKOUT
WEATHER BY HOUR - JANUARY 31, 2013
[ °C ]   °F
Local TimeTemperatureDewpointHumidityBarometerVisibilityWind DirectionWind SpeedGust SpeedPrecipitationEventsConditions
12:30 AM21.2 °F19.4 °F93 %29.98 in6.2 miSE (130°)11.2 mphOvercast
1:00 AM21.2 °F21.2 °F100 %29.98 in5.6 miSSE (150°)6.7 mphOvercast
1:30 AM23.0 °F19.4 °F86 %29.98 in6.2 miSSE (150°)6.7 mphOvercast
2:00 AM23.0 °F19.4 °F86 %29.98 in6.2 miSSE (150°)8.9 mphOvercast
2:30 AM23.0 °F19.4 °F86 %29.98 in6.2 miSE (140°)4.5 mphOvercast
3:00 AM21.2 °F19.4 °F93 %29.95 in6.2 miSE (130°)8.9 mphOvercast
4:00 AM21.2 °F19.4 °F93 %29.95 in6.2 miSE (130°)8.9 mphOvercast
4:30 AM21.2 °F19.4 °F93 %29.95 in6.2 miSE (130°)13.4 mphOvercast
5:00 AM21.2 °F17.6 °F86 %29.95 in6.2 miSE (140°)8.9 mphOvercast
5:30 AM21.2 °F17.6 °F86 %29.95 in5.0 miSSE (160°)4.5 mphSnowLight Snow Grains
6:00 AM21.2 °F17.6 °F86 %29.92 in6.2 miSE (140°)11.2 mphSnowLight Snow Grains
6:30 AM21.2 °F19.4 °F93 %29.92 in6.2 miSE (140°)8.9 mphOvercast
7:00 AM21.2 °F19.4 °F93 %29.92 in6.2 miSE (140°)8.9 mphOvercast
7:30 AM21.2 °F19.4 °F93 %29.89 in6.2 miSE (130°)13.4 mphOvercast
8:00 AM21.2 °F19.4 °F93 %29.89 in6.2 miSE (140°)11.2 mphOvercast
8:30 AM21.2 °F19.4 °F93 %29.89 in6.2 miSE (130°)8.9 mphOvercast
9:00 AM21.2 °F19.4 °F93 %29.89 in6.2 miSE (140°)11.2 mphSnowLight Snow Grains
9:30 AM21.2 °F19.4 °F93 %29.89 in6.2 miSSE (160°)4.5 mphSnowLight Snow Grains
10:00 AM21.2 °F19.4 °F93 %29.86 in3.7 miSE (140°)8.9 mphSnowLight Snow
10:30 AM21.2 °F19.4 °F93 %29.86 in3.1 miSE (130°)13.4 mphSnowLight Snow
11:00 AM21.2 °F19.4 °F93 %29.86 in3.7 miSE (130°)11.2 mphSnowLight Snow
11:30 AM23.0 °F19.4 °F86 %29.86 in6.2 miSE (140°)11.2 mphSnowLight Snow
12:00 PM23.0 °F19.4 °F86 %29.86 in5.6 miSE (140°)8.9 mphSnowLight Snow
12:30 PM23.0 °F19.4 °F86 %29.83 in5.6 miSE (140°)8.9 mphSnowLight Snow
1:00 PM23.0 °F19.4 °F86 %29.83 in3.1 miSE (140°)8.9 mphSnowLight Snow
1:30 PM23.0 °F21.2 °F93 %29.83 in5.0 miSE (140°)11.2 mphSnowLight Snow
2:00 PM23.0 °F21.2 °F93 %29.83 in6.2 miSSE (150°)8.9 mphSnowLight Snow
2:30 PM23.0 °F19.4 °F86 %29.80 in5.0 miSSE (150°)8.9 mphSnowLight Snow
3:00 PM23.0 °F21.2 °F93 %29.80 in5.6 miSE (140°)11.2 mphSnowLight Snow
3:30 PM23.0 °F21.2 °F93 %29.80 in3.1 miSE (140°)11.2 mphSnowLight Snow
4:00 PM23.0 °F21.2 °F93 %29.77 inSE (140°)11.2 mphSnowLight Snow
4:30 PM23.0 °F21.2 °F93 %29.77 in5.0 miSE (130°)11.2 mphSnowLight Snow
5:00 PM23.0 °F21.2 °F93 %29.77 in5.0 miSE (130°)11.2 mphSnowLight Snow
5:30 PM23.0 °F21.2 °F93 %29.77 in3.7 miESE (120°)11.2 mphSnowLight Snow
6:00 PM23.0 °F21.2 °F93 %29.74 in6.2 miSE (140°)11.2 mphSnowLight Snow
6:30 PM23.0 °F21.2 °F93 %29.74 in5.6 miSE (140°)11.2 mphSnowLight Snow
7:00 PM23.0 °F21.2 °F93 %29.74 in5.6 miSE (140°)11.2 mphSnowLight Snow
7:30 PM23.0 °F21.2 °F93 %29.74 in5.0 miSE (130°)11.2 mphSnowLight Snow
8:00 PM23.0 °F21.2 °F93 %29.74 in5.6 miSSE (150°)6.7 mphSnowLight Snow
8:30 PM23.0 °F21.2 °F93 %29.74 in5.6 miSE (140°)6.7 mphSnowLight Snow
9:00 PM23.0 °F21.2 °F93 %29.71 in5.0 miSE (140°)6.7 mphSnowLight Snow
9:30 PM23.0 °F21.2 °F93 %29.71 in5.6 miSE (140°)8.9 mphSnowLight Snow
10:00 PM23.0 °F21.2 °F93 %29.71 in5.6 miSE (140°)8.9 mphOvercast
10:30 PM23.0 °F21.2 °F93 %29.71 in5.0 miSE (140°)8.9 mphOvercast
11:00 PM23.0 °F21.2 °F93 %29.68 in4.3 miSSE (150°)8.9 mphOvercast
11:30 PM23.0 °F23.0 °F100 %29.68 in3.1 miSouth (170°)6.7 mphOvercast
Hourly data recorded from UUOO, located miles away from Voronez, Russia







STORIES FROM OUR PARTNERS